Winona, MN

1:31 PM CDT on May 26, 2018 (GMT -0500)
Winona Municipal-Conrad

Weather History for KONA - September, 2013

Change the Weather History Date:

Monday, September 16, 2013

  Actual Average Record
Temperature  
Mean Temperature 56 °F -  
Max Temperature 66 °F 72 °F 87 °F (2003)
Min Temperature 46 °F 54 °F 39 °F (2014)
Degree Days  
Heating Degree Days 9    
Growing Degree Days 6 (Base 50)    
Moisture  
Dew Point 42 °F    
Average Humidity 67    
Maximum Humidity 100    
Minimum Humidity 32    
Precipitation  
Precipitation 0.00 in - - ()
Sea Level Pressure  
Sea Level Pressure 30.35 in    
Wind  
Wind Speed 5 mph (ESE)    
Max Wind Speed 10 mph    
Max Gust Speed -    
Visibility 10 miles    
Events      
Averages and records for this station are not official NWS values.
T = Trace of Precipitation, MM = Missing Value Source: NWS Daily Summary

Daily Weather History Graph

Daily Weather History Graph

Search for Another Location

Airport or City:

Astronomy

Sep. 16, 2013 Rise Set
Actual Time 6:47 AM CDT 7:14 PM CDT
Civil Twilight 6:18 AM CDT 7:43 PM CDT
Nautical Twilight 5:44 AM CDT 8:17 PM CDT
Astronomical Twilight 5:08 AM CDT 8:53 PM CDT
Moon 5:28 PM CDT (9/16) 3:28 AM CDT (9/16)
Length of Visible Light 13h 25m
Length of Day
12h 27m
Waxing Gibbous, 90% of the Moon is Illuminated
Sep 16
Waxing Gibbous
Sep 19
Full
Sep 26
Last Quarter
Oct 4
New
Oct 11
First Quarter

Hourly Weather History & Observations

Time (CDT) Temp. Windchill Dew Point Humidity Pressure Visibility Wind Dir Wind Speed Gust Speed Precip Events Conditions
12:16 AM 53.6 °F - 46.4 °F 77% 30.30 in 10.0 mi North 6.9 mph - N/A   Overcast
12:36 AM 53.6 °F - 44.6 °F 72% 30.31 in 10.0 mi NNE 8.1 mph - N/A   Overcast
12:56 AM 53.6 °F - 44.6 °F 72% 30.31 in 10.0 mi NE 5.8 mph - N/A   Overcast
1:16 AM 53.6 °F - 44.6 °F 72% 30.31 in 10.0 mi NE 8.1 mph - N/A   Overcast
1:36 AM 53.6 °F - 44.6 °F 72% 30.32 in 10.0 mi NE 5.8 mph - N/A   Overcast
1:56 AM 53.6 °F - 44.6 °F 72% 30.32 in 10.0 mi ENE 4.6 mph - N/A   Overcast
2:16 AM 51.8 °F - 44.6 °F 76% 30.33 in 10.0 mi ENE 3.5 mph - N/A   Overcast
2:36 AM 51.8 °F - 44.6 °F 76% 30.33 in 10.0 mi ENE 3.5 mph - N/A   Scattered Clouds
2:56 AM 50.0 °F - 42.8 °F 76% 30.34 in 10.0 mi ENE 4.6 mph - N/A   Clear
3:15 AM 48.2 °F - 42.8 °F 82% 30.34 in 10.0 mi NE 3.5 mph - N/A   Clear
3:36 AM 48.2 °F - 42.8 °F 82% 30.34 in 10.0 mi Calm Calm - N/A   Clear
3:56 AM 48.2 °F - 42.8 °F 82% 30.35 in 10.0 mi Calm Calm - N/A   Clear
4:16 AM 48.2 °F - 42.8 °F 82% 30.35 in 10.0 mi ENE 3.5 mph - N/A   Scattered Clouds
4:36 AM 46.4 °F - 42.8 °F 87% 30.35 in 10.0 mi Calm Calm - N/A   Scattered Clouds
4:56 AM 46.4 °F - 42.8 °F 87% 30.35 in 10.0 mi Calm Calm - N/A   Mostly Cloudy
5:16 AM 46.4 °F - 42.8 °F 87% 30.36 in 10.0 mi Calm Calm - N/A   Mostly Cloudy
5:36 AM 46.4 °F - 44.6 °F 93% 30.37 in 10.0 mi Calm Calm - N/A   Overcast
5:56 AM 46.4 °F - 42.8 °F 87% 30.37 in 10.0 mi Calm Calm - N/A   Mostly Cloudy
6:16 AM 46.4 °F 45.2 °F 42.8 °F 87% 30.38 in 10.0 mi ESE 3.5 mph - N/A   Mostly Cloudy
6:36 AM 46.4 °F 45.2 °F 42.8 °F 87% 30.39 in 10.0 mi ESE 3.5 mph - N/A   Overcast
6:56 AM 46.4 °F - 42.8 °F 87% 30.40 in 10.0 mi Calm Calm - N/A   Overcast
7:16 AM 46.4 °F 44.3 °F 42.8 °F 87% 30.40 in 10.0 mi ESE 4.6 mph - N/A   Overcast
7:36 AM 46.4 °F - 42.8 °F 87% 30.41 in 10.0 mi Calm Calm - N/A   Mostly Cloudy
7:56 AM 48.2 °F - 42.8 °F 82% 30.41 in 10.0 mi East 4.6 mph - N/A   Scattered Clouds
8:16 AM 48.2 °F - 42.8 °F 82% 30.41 in 10.0 mi SE 5.8 mph - N/A   Clear
8:36 AM 48.2 °F - 41.0 °F 76% 30.41 in 10.0 mi ESE 6.9 mph - N/A   Clear
8:56 AM 50.0 °F - 41.0 °F 71% 30.41 in 10.0 mi ESE 10.4 mph - N/A   Clear
9:16 AM 51.8 °F - 41.0 °F 67% 30.42 in 10.0 mi ESE 9.2 mph - N/A   Clear
9:36 AM 53.6 °F - 42.8 °F 67% 30.42 in 10.0 mi ESE 10.4 mph - N/A   Clear
9:56 AM 53.6 °F - 41.0 °F 62% 30.42 in 10.0 mi East 8.1 mph - N/A   Clear
10:16 AM 53.6 °F - 39.2 °F 58% 30.42 in 10.0 mi ESE 8.1 mph - N/A   Clear
10:36 AM 53.6 °F - 39.2 °F 58% 30.42 in 10.0 mi SE 9.2 mph - N/A   Clear
10:56 AM 55.4 °F - 41.0 °F 58% 30.42 in 10.0 mi SE 8.1 mph - N/A   Clear
11:16 AM 55.4 °F - 41.0 °F 58% 30.42 in 10.0 mi SE 6.9 mph - N/A   Clear
11:36 AM 55.4 °F - 41.0 °F 58% 30.42 in 10.0 mi SSE 5.8 mph - N/A   Clear
11:56 AM 59.0 °F - 39.2 °F 48% 30.42 in 10.0 mi SE 10.4 mph - N/A   Clear
12:16 PM 59.0 °F - 39.2 °F 48% 30.41 in 10.0 mi SE 9.2 mph - N/A   Clear
12:36 PM 59.0 °F - 39.2 °F 48% 30.41 in 10.0 mi SE 6.9 mph - N/A   Clear
12:56 PM 60.8 °F - 37.4 °F 42% 30.41 in 10.0 mi ESE 5.8 mph - N/A   Clear
1:16 PM 60.8 °F - 37.4 °F 42% 30.41 in 10.0 mi SE 4.6 mph - N/A   Clear
1:36 PM 60.8 °F - 39.2 °F 45% 30.39 in 10.0 mi SE 8.1 mph - N/A   Clear
1:56 PM 60.8 °F - 37.4 °F 42% 30.39 in 10.0 mi SSE 6.9 mph - N/A   Clear
2:16 PM 62.6 °F - 35.6 °F 37% 30.38 in 10.0 mi SE 5.8 mph - N/A   Clear
2:36 PM 62.6 °F - 33.8 °F 34% 30.38 in 10.0 mi SE 6.9 mph - N/A   Clear
2:56 PM 64.4 °F - 37.4 °F 37% 30.36 in 10.0 mi East 4.6 mph - N/A   Clear
3:16 PM 64.4 °F - 35.6 °F 34% 30.36 in 10.0 mi ESE 8.1 mph - N/A   Clear
3:36 PM 66.2 °F - 39.2 °F 37% 30.35 in 10.0 mi East 6.9 mph - N/A   Clear
3:56 PM 64.4 °F - 35.6 °F 34% 30.35 in 10.0 mi SE 6.9 mph - N/A   Clear
4:16 PM 66.2 °F - 35.6 °F 32% 30.33 in 10.0 mi ESE 6.9 mph - N/A   Clear
4:36 PM 66.2 °F - 37.4 °F 35% 30.33 in 10.0 mi ESE 6.9 mph - N/A   Clear
4:56 PM 66.2 °F - 37.4 °F 35% 30.33 in 10.0 mi SE 5.8 mph - N/A   Clear
5:16 PM 66.2 °F - 39.2 °F 37% 30.32 in 10.0 mi ESE 5.8 mph - N/A   Clear
5:36 PM 62.6 °F - 39.2 °F 42% 30.31 in 10.0 mi East 5.8 mph - N/A   Clear
5:56 PM 62.6 °F - 41.0 °F 45% 30.31 in 10.0 mi ESE 4.6 mph - N/A   Clear
6:16 PM 62.6 °F - 41.0 °F 45% 30.30 in 10.0 mi ESE 5.8 mph - N/A   Clear
6:36 PM 62.6 °F - 41.0 °F 45% 30.30 in 10.0 mi ESE 4.6 mph - N/A   Clear
6:56 PM 60.8 °F - 39.2 °F 45% 30.30 in 10.0 mi SSE 3.5 mph - N/A   Clear
7:16 PM 59.0 °F - 44.6 °F 59% 30.30 in 10.0 mi Calm Calm - N/A   Clear
7:36 PM 55.4 °F - 44.6 °F 67% 30.30 in 10.0 mi Calm Calm - N/A   Clear
7:56 PM 53.6 °F - 46.4 °F 77% 30.30 in 10.0 mi Calm Calm - N/A   Clear
8:16 PM 53.6 °F - 46.4 °F 77% 30.30 in 10.0 mi Calm Calm - N/A   Clear
8:36 PM 53.6 °F - 46.4 °F 77% 30.30 in 10.0 mi Calm Calm - N/A   Clear
8:56 PM 51.8 °F - 46.4 °F 82% 30.31 in 10.0 mi Calm Calm - N/A   Clear
9:16 PM 50.0 °F - 44.6 °F 82% 30.30 in 10.0 mi Calm Calm - N/A   Clear
9:36 PM 48.2 °F - 44.6 °F 87% 30.30 in 10.0 mi Calm Calm - N/A   Clear
9:56 PM 48.2 °F - 46.4 °F 93% 30.30 in 10.0 mi Calm Calm - N/A   Clear
10:16 PM 48.2 °F - 46.4 °F 93% 30.30 in 10.0 mi Calm Calm - N/A   Clear
10:36 PM 48.2 °F - 46.4 °F 93% 30.31 in 10.0 mi Calm Calm - N/A   Clear
10:56 PM 48.2 °F - 46.4 °F 93% 30.31 in 10.0 mi Calm Calm - N/A   Clear
11:16 PM 48.2 °F - 46.4 °F 93% 30.31 in 10.0 mi Calm Calm - N/A   Clear
11:36 PM 46.4 °F - 46.4 °F 100% 30.31 in 10.0 mi Calm Calm - N/A   Clear
11:56 PM 48.2 °F - 46.4 °F 93% 30.31 in 10.0 mi Calm Calm - N/A   Clear